map of BEG home
BEG - Airport
Location
City:  Belgrade, Serbia
Near (Alt.):Beograd
Name:Belgrade Nikola Tesla
Old (Alt.):Surcin
ICAO:LYBE
IATA:BEG

Details
Type:Airport (Aerodrome, Airfield)
Use:Public/Civil, International (customs port of entry)
Latitude:4449'06"N (44.818444)
Longitude:2018'33"E (20.309139)
Datum:WGS 1984
Elevation:335 ft (102 m)
Variation:4.77E (WMM2015 magnetic declination)
0.11 annual change
Runways:1
Longest:11155 × 148 ft (3400 × 45 m), paved

Time
Time Zone:UTC+1 (DST+2)
Local Time:

Weather
METAR:LYBE 190430Z 13005KT 9999 OVC010 01/M00 Q1014 NOSIG
TAF:LYBE 182300Z 1900/1924 11009KT 5000 -SN BKN008 BKN023 TX03/1912Z TNM00/1905Z
TEMPO 1900/1903 2000 SN BKN005 BKN020
BECMG 1905/1907 6000 NSW SCT015 BKN023

Related Locations
Nearby:
Farthest:CHT: 11608 mi / 18681 km
Waitangi [Tuuta], CIT, NZ

Find:

   beyond  
but within

Other Information
Maps:
NOTAMs:
Links:
Sources:

  
  • flag of Serbia
  • flag of Belgrade
  

Sectional Chart

Flight Planning
at skyvector.com

Satellite Image

Google Maps Satellite view

 

Copyright © 2004-2018 Karl L. Swartz. All rights reserved.
The Great Circle Mapper name and logo are trademarks of the Great Circle Mapper.
All other trademarks mentioned herein belong to their respective owners.
Please see credits for attibutions and further copyright information.

  Follow gcmap on Facebook Follow gcmap on Twitter Follow gcmap on Google+ GCmap on LinkedIn

hCard Microformat

Geo Microformat